Orbital elements:
2012 ST9 Earth MOID = 0.0638 AU
Epoch 2012 Sept. 30.0 TT = JDT 2456200.5 MPC
M 324.10058 (2000.0) P Q
n 0.35903614 Peri. 308.11110 -0.53992968 -0.84161364
a 1.9605470 Node 174.52199 +0.80800028 -0.52248866
e 0.6618444 Incl. 7.67209 +0.23582088 -0.13671900
P 2.75 H 19.8 G 0.15 U 3
Orbital elements:
2012 ST9 Earth MOID = 0.0634 AU
Epoch 2012 Sept. 30.0 TT = JDT 2456200.5 MPC
M 324.20042 (2000.0) P Q
n 0.35919385 Peri. 308.06201 -0.53849105 -0.84253451
a 1.9599732 Node 174.47348 +0.80866287 -0.52098245
e 0.6619822 Incl. 7.61782 +0.23683698 -0.13679505
P 2.74 H 19.8 G 0.15 U 9